FW4012 Weather Reports


Display with metric or nautical units.
time (UTC)temp
F
wind
direction
speed
MPH
gust
MPH
rain 1hr
in
rain 24hr
in
rain mn
in
humidity
%
barometer
mb
20260902222742 66 328 2.0 4.0 0.00 0.00 0.00 87 1017.9
20260902222225 66 355 1.0 3.0 0.00 0.00 0.00 87 1017.9
20260902221750 66 277 0.0 2.0 0.00 0.00 0.00 87 1017.9
20260902221241 66 269 1.0 2.0 0.00 0.00 0.00 87 1018.0
20260902220750 66 274 0.0 5.0 0.00 0.00 0.00 87 1017.8
20260902220243 66 263 1.0 5.0 0.00 0.00 0.00 87 1017.8
20260902215749 67 342 0.0 3.0 0.00 0.00 0.00 87 1017.8
20260902215226 67 318 0.0 2.0 0.00 0.00 0.00 87 1017.7
20260902214759 67 318 0.0 4.0 0.00 0.00 0.00 87 1017.7
20260902214252 67 318 1.0 4.0 0.00 0.00 0.00 87 1017.7
20260902213743 67 304 2.0 3.0 0.00 0.00 0.00 87 1017.7
20260902213250 67 304 0.0 0.0 0.00 0.00 0.00 87 1017.7
20260902212739 67 304 0.0 0.0 0.00 0.00 0.00 86 1017.6
20260902212240 67 304 0.0 0.0 0.00 0.00 0.00 86 1017.6
20260902211726 67 304 0.0 1.0 0.00 0.00 0.00 87 1017.6
20260902211238 67 304 0.0 3.0 0.00 0.00 0.00 86 1017.6
20260902210737 68 304 1.0 3.0 0.00 0.00 0.00 86 1017.5
20260902210236 68 292 1.0 2.0 0.00 0.00 0.00 86 1017.5
20260902205729 68 287 0.0 2.0 0.00 0.00 0.00 86 1017.5
20260902205235 68 287 0.0 2.0 0.00 0.00 0.00 86 1017.5
20260902204726 68 287 1.0 3.0 0.00 0.00 0.00 86 1017.4
20260902204251 68 287 1.0 3.0 0.00 0.00 0.00 86 1017.5
20260902203740 68 286 1.0 2.0 0.00 0.00 0.00 85 1017.4
20260902203245 68 286 0.0 0.0 0.00 0.00 0.00 85 1017.4
20260902202734 68 286 0.0 1.0 0.00 0.00 0.00 85 1017.5
20260902202226 68 286 0.0 1.0 0.00 0.00 0.00 85 1017.4
20260902201745 68 286 0.0 0.0 0.00 0.00 0.00 84 1017.4
20260902201235 68 286 0.0 1.0 0.00 0.00 0.00 84 1017.4
20260902200729 69 286 0.0 1.0 0.00 0.00 0.00 84 1017.3
20260902200240 69 286 0.0 1.0 0.00 0.00 0.00 84 1017.3
20260902195740 69 286 0.0 2.0 0.00 0.00 0.00 84 1017.4
20260902195248 69 286 1.0 2.0 0.00 0.00 0.00 84 1017.3
20260902194742 69 284 0.0 0.0 0.00 0.00 0.00 83 1017.3
20260902194237 70 284 0.0 0.0 0.00 0.00 0.00 83 1017.2
20260902193728 70 284 0.0 0.0 0.00 0.00 0.00 83 1017.1
20260902193237 70 284 0.0 0.0 0.00 0.00 0.00 83 1017.2
20260902192731 70 284 0.0 0.0 0.00 0.00 0.00 82 1017.2
20260902192224 70 284 0.0 0.0 0.00 0.00 0.00 82 1017.1
20260902191727 71 284 0.0 0.0 0.00 0.00 0.00 82 1017.0
20260902191301 71 284 0.0 0.0 0.00 0.00 0.00 81 1017.1
20260902190749 71 284 0.0 0.0 0.00 0.00 0.00 81 1016.9
20260902190239 72 284 0.0 0.0 0.00 0.00 0.00 80 1016.9
20260902185737 72 284 0.0 0.0 0.00 0.00 0.00 80 1016.9
20260902185252 72 284 0.0 0.0 0.00 0.00 0.00 80 1016.8
20260902184802 72 284 0.0 0.0 0.00 0.00 0.00 79 1016.7
20260902184252 73 284 0.0 0.0 0.00 0.00 0.00 78 1016.7
20260902183737 73 284 0.0 0.0 0.00 0.00 0.00 78 1016.7
20260902183237 74 284 0.0 0.0 0.00 0.00 0.00 76 1016.7
20260902182731 75 284 0.0 0.0 0.00 0.00 0.00 76 1016.6
20260902182230 75 284 0.0 0.0 0.00 0.00 0.00 74 1016.7
20260902181735 76 284 0.0 0.0 0.00 0.00 0.00 74 1016.6
20260902181234 76 284 0.0 0.0 0.00 0.00 0.00 73 1016.6
20260902180748 77 284 0.0 0.0 0.00 0.00 0.00 72 1016.5
20260902180238 77 284 0.0 1.0 0.00 0.00 0.00 69 1016.4
20260902175733 78 284 0.0 1.0 0.00 0.00 0.00 67 1016.4
20260902175224 78 284 0.0 1.0 0.00 0.00 0.00 66 1016.4
20260902174752 79 284 0.0 2.0 0.00 0.00 0.00 65 1016.4
20260902174241 80 284 1.0 2.0 0.00 0.00 0.00 65 1016.4
20260902173749 80 284 2.0 2.0 0.00 0.00 0.00 64 1016.3
20260902173234 82 284 2.0 2.0 0.00 0.00 0.00 62 1016.3
20260902172726 83 284 2.0 2.0 0.00 0.00 0.00 60 1016.3
20260902172248 84 284 1.0 2.0 0.00 0.00 0.00 58 1016.3
20260902171754 85 284 0.0 3.0 0.00 0.00 0.00 56 1016.3
20260902171225 85 284 1.0 3.0 0.00 0.00 0.00 55 1016.3
20260902170749 86 284 2.0 3.0 0.00 0.00 0.00 55 1016.3
20260902170226 86 284 2.0 3.0 0.00 0.00 0.00 55 1016.3
20260902165738 86 247 2.0 3.0 0.00 0.00 0.00 52 1016.3
20260902165248 86 247 1.0 3.0 0.00 0.00 0.00 52 1016.3
20260902164739 86 321 1.0 4.0 0.00 0.00 0.00 52 1016.3
20260902164239 86 251 2.0 4.0 0.00 0.00 0.00 52 1016.3
20260902163738 86 298 3.0 4.0 0.00 0.00 0.00 53 1016.3
20260902163242 86 201 1.0 4.0 0.00 0.00 0.00 52 1016.3
20260902162732 85 237 2.0 4.0 0.00 0.00 0.00 52 1016.2
20260902162224 85 246 3.0 6.0 0.00 0.00 0.00 53 1016.3
20260902161750 85 238 3.0 6.0 0.00 0.00 0.00 55 1016.2
20260902161242 85 263 3.0 7.0 0.00 0.00 0.00 55 1016.2
20260902160739 85 248 3.0 6.0 0.00 0.00 0.00 54 1016.4
20260902160245 86 234 4.0 7.0 0.00 0.00 0.00 53 1016.3
20260902155805 86 252 3.0 5.0 0.00 0.00 0.00 53 1016.3
20260902155236 86 278 2.0 5.0 0.00 0.00 0.00 53 1016.3
20260902154725 86 229 3.0 7.0 0.00 0.00 0.00 52 1016.4
20260902154244 86 239 1.0 5.0 0.00 0.00 0.00 52 1016.4
20260902153741 86 236 3.0 5.0 0.00 0.00 0.00 52 1016.5
20260902153245 85 281 3.0 5.0 0.00 0.00 0.00 56 1016.6
20260902152725 84 230 2.0 4.0 0.00 0.00 0.00 55 1016.6
20260902152242 84 241 3.0 4.0 0.00 0.00 0.00 54 1016.6
20260902151804 84 241 3.0 5.0 0.00 0.00 0.00 53 1016.6
20260902151223 85 302 3.0 8.0 0.00 0.00 0.00 53 1016.6
20260902150803 86 247 5.0 8.0 0.00 0.00 0.00 52 1016.6
20260902150224 86 215 2.0 5.0 0.00 0.00 0.00 52 1016.7
20260902145739 86 266 3.0 5.0 0.00 0.00 0.00 53 1016.8
20260902145224 85 250 2.0 4.0 0.00 0.00 0.00 54 1016.8
20260902144749 85 200 2.0 5.0 0.00 0.00 0.00 54 1016.9
20260902144243 85 217 3.0 9.0 0.00 0.00 0.00 53 1016.9
20260902143746 85 230 3.0 7.0 0.00 0.00 0.00 54 1016.9
20260902143231 85 250 2.0 8.0 0.00 0.00 0.00 52 1016.9
20260902142729 86 184 4.0 8.0 0.00 0.00 0.00 53 1016.9
20260902142244 86 232 4.0 7.0 0.00 0.00 0.00 52 1016.8
20260902141728 85 171 1.0 4.0 0.00 0.00 0.00 52 1016.9
20260902141239 86 219 1.0 7.0 0.00 0.00 0.00 54 1017.0
20260902140749 86 240 5.0 7.0 0.00 0.00 0.00 52 1017.0
20260902140227 86 163 0.0 7.0 0.00 0.00 0.00 52 1017.0
20260902135800 86 156 4.0 7.0 0.00 0.00 0.00 52 1017.2
20260902135245 86 175 5.0 7.0 0.00 0.00 0.00 52 1017.1
20260902134737 86 209 4.0 9.0 0.00 0.00 0.00 58 1017.1
20260902134224 85 140 5.0 10.0 0.00 0.00 0.00 54 1017.1
20260902133810 85 240 5.0 10.0 0.00 0.00 0.00 55 1017.2
20260902133224 84 234 2.0 10.0 0.00 0.00 0.00 57 1017.1
20260902132741 85 228 4.0 10.0 0.00 0.00 0.00 54 1017.2
20260902132242 85 245 3.0 5.0 0.00 0.00 0.00 55 1017.2
20260902131724 85 215 2.0 5.0 0.00 0.00 0.00 57 1017.3
20260902131237 84 277 3.0 7.0 0.00 0.00 0.00 56 1017.4
20260902130733 85 244 4.0 7.0 0.00 0.00 0.00 58 1017.4
20260902130238 85 184 4.0 8.0 0.00 0.00 0.00 56 1017.5
20260902125736 84 213 5.0 8.0 0.00 0.00 0.00 55 1017.7
20260902125224 85 253 2.0 9.0 0.00 0.00 0.00 56 1017.7
20260902124811 84 272 2.0 9.0 0.00 0.00 0.00 55 1017.7
20260902124237 84 257 3.0 7.0 0.00 0.00 0.00 59 1017.8
20260902123737 83 146 1.0 4.0 0.00 0.00 0.00 62 1017.7
20260902123231 83 119 2.0 5.0 0.00 0.00 0.00 61 1017.8
20260902122737 83 150 2.0 5.0 0.00 0.00 0.00 60 1017.9
20260902122243 84 216 2.0 5.0 0.00 0.00 0.00 59 1017.9
20260902121753 84 183 2.0 8.0 0.00 0.00 0.00 62 1017.9
20260902121237 84 126 6.0 9.0 0.00 0.00 0.00 59 1018.0
20260902120733 84 121 5.0 11.0 0.00 0.00 0.00 58 1018.1
20260902120228 84 132 5.0 11.0 0.00 0.00 0.00 61 1018.1
20260902115725 83 90 1.0 5.0 0.00 0.00 0.00 61 1018.2
20260902115239 84 198 3.0 5.0 0.00 0.00 0.00 60 1018.2
20260902114751 83 157 1.0 5.0 0.00 0.00 0.00 63 1018.3
20260902114258 83 24 2.0 5.0 0.00 0.00 0.00 63 1018.3
20260902113725 82 49 3.0 5.0 0.00 0.00 0.00 64 1018.4
20260902113246 81 89 3.0 4.0 0.00 0.00 0.00 65 1018.5
20260902112733 82 63 2.0 4.0 0.00 0.00 0.00 63 1018.5
20260902112223 83 140 2.0 4.0 0.00 0.00 0.00 63 1018.5
20260902111749 82 219 1.0 4.0 0.00 0.00 0.00 64 1018.6
20260902111223 81 219 2.0 3.0 0.00 0.00 0.00 63 1018.7
20260902110725 81 189 1.0 4.0 0.00 0.00 0.00 64 1018.8
20260902110249 81 182 2.0 4.0 0.00 0.00 0.00 64 1018.7
20260902105745 81 227 1.0 8.0 0.00 0.00 0.00 64 1018.8
20260902105305 82 225 4.0 8.0 0.00 0.00 0.00 63 1018.9
20260902104748 82 116 3.0 8.0 0.00 0.00 0.00 62 1018.9
20260902104238 83 172 4.0 6.0 0.00 0.00 0.00 61 1018.9
20260902103723 82 109 1.0 5.0 0.00 0.00 0.00 64 1018.9
20260902103309 82 31 1.0 5.0 0.00 0.00 0.00 62 1019.0
20260902102739 83 197 3.0 9.0 0.00 0.00 0.00 63 1019.0
20260902102245 82 188 4.0 9.0 0.00 0.00 0.00 65 1019.1
20260902101734 83 205 2.0 6.0 0.00 0.00 0.00 62 1019.1
20260902101224 81 146 3.0 4.0 0.00 0.00 0.00 64 1019.2
20260902100734 81 152 2.0 5.0 0.00 0.00 0.00 65 1019.2
20260902100239 81 306 3.0 6.0 0.00 0.00 0.00 68 1019.2
20260902095739 81 294 2.0 6.0 0.00 0.00 0.00 66 1019.2
20260902095237 81 306 4.0 6.0 0.00 0.00 0.00 66 1019.3
20260902094744 80 14 3.0 5.0 0.00 0.00 0.00 66 1019.4
20260902094226 80 5 1.0 5.0 0.00 0.00 0.00 69 1019.4
20260902093728 79 323 3.0 6.0 0.00 0.00 0.00 69 1019.5
20260902093316 79 24 3.0 6.0 0.00 0.00 0.00 68 1019.5
20260902092742 79 183 1.0 3.0 0.00 0.00 0.00 68 1019.4
20260902092308 79 173 1.0 3.0 0.00 0.00 0.00 68 1019.4
20260902091731 79 177 1.0 7.0 0.00 0.00 0.00 69 1019.5
20260902091226 79 153 3.0 7.0 0.00 0.00 0.00 69 1019.5
20260902090751 78 45 1.0 7.0 0.00 0.00 0.00 70 1019.6
20260902090236 78 143 4.0 7.0 0.00 0.00 0.00 71 1019.6
20260902085724 78 132 1.0 4.0 0.00 0.00 0.00 70 1019.5
20260902085239 78 96 0.0 6.0 0.00 0.00 0.00 71 1019.5
20260902084723 78 114 2.0 6.0 0.00 0.00 0.00 72 1019.4
20260902084241 78 89 1.0 4.0 0.00 0.00 0.00 71 1019.3
20260902083749 77 151 2.0 7.0 0.00 0.00 0.00 71 1019.3
20260902083242 77 117 4.0 7.0 0.00 0.00 0.00 71 1019.4
20260902082742 77 87 2.0 3.0 0.00 0.00 0.00 71 1019.3
20260902082224 77 74 1.0 4.0 0.00 0.00 0.00 71 1019.2
20260902081735 76 123 2.0 4.0 0.00 0.00 0.00 71 1019.3
20260902081227 76 344 2.0 4.0 0.00 0.00 0.00 72 1019.4
20260902080749 76 343 2.0 4.0 0.00 0.00 0.00 70 1019.4
20260902080404 76 331 2.0 5.0 0.00 0.00 0.00 71 1019.3
20260902075739 76 36 3.0 5.0 0.00 0.00 0.00 72 1019.2
20260902075248 76 86 3.0 5.0 0.00 0.00 0.00 74 1019.2
20260902074732 75 34 4.0 5.0 0.00 0.00 0.00 75 1019.1
20260902074242 75 87 2.0 4.0 0.00 0.00 0.00 75 1019.1
20260902073802 75 29 1.0 4.0 0.00 0.00 0.00 75 1019.1
20260902073232 75 85 2.0 3.0 0.00 0.00 0.00 75 1019.2
20260902072726 75 25 2.0 5.0 0.00 0.00 0.00 75 1019.2
20260902072310 75 336 1.0 5.0 0.00 0.00 0.00 76 1019.2
20260902071732 75 9 1.0 5.0 0.00 0.00 0.00 76 1019.3
20260902071300 75 26 1.0 5.0 0.00 0.00 0.00 75 1019.2
20260902070748 75 27 2.0 6.0 0.00 0.00 0.00 75 1019.1
20260902070241 75 34 3.0 9.0 0.00 0.00 0.00 75 1019.0
20260902065749 74 360 3.0 6.0 0.00 0.00 0.00 76 1019.0
20260902065239 74 38 1.0 4.0 0.00 0.00 0.00 78 1018.9
20260902064727 73 344 0.0 0.0 0.00 0.00 0.00 80 1019.0
20260902064225 73 344 0.0 3.0 0.00 0.00 0.00 82 1018.9
20260902063737 72 344 0.0 6.0 0.00 0.00 0.00 83 1018.8
20260902063235 71 325 2.0 6.0 0.00 0.00 0.00 84 1018.9
20260902062729 71 336 0.0 3.0 0.00 0.00 0.00 87 1018.9
20260902062235 71 307 0.0 0.0 0.00 0.00 0.00 89 1018.9
20260902061723 70 307 0.0 0.0 0.00 0.00 0.00 91 1018.7
20260902061249 69 307 0.0 0.0 0.00 0.00 0.00 91 1018.7
20260902060741 68 307 0.0 0.0 0.00 0.00 0.00 92 1018.8
20260902060247 68 307 0.0 0.0 0.00 0.00 0.00 91 1018.8
20260902055739 67 307 0.0 0.0 0.00 0.00 0.00 92 1018.8
20260902055243 67 307 0.0 0.0 0.00 0.00 0.00 91 1018.7
20260902054733 67 307 0.0 0.0 0.00 0.00 0.00 92 1018.7
20260902054228 66 307 0.0 0.0 0.00 0.00 0.00 92 1018.6
20260902053816 66 307 0.0 0.0 0.00 0.00 0.00 91 1018.6
20260902053241 66 307 0.0 0.0 0.00 0.00 0.00 91 1018.5
20260902052750 65 307 0.0 0.0 0.00 0.00 0.00 91 1018.6
20260902052240 65 307 0.0 0.0 0.00 0.00 0.00 91 1018.6
20260902051740 65 296 0.0 0.0 0.00 0.00 0.00 91 1018.4
20260902051250 65 296 0.0 0.0 0.00 0.00 0.00 91 1018.4
20260902050733 65 296 0.0 0.0 0.00 0.00 0.00 91 1018.5
20260902050228 65 296 0.0 0.0 0.00 0.00 0.00 91 1018.5
20260902045741 65 296 0.0 0.0 0.00 0.00 0.00 91 1018.4
20260902045244 65 296 0.0 0.0 0.00 0.00 0.00 91 1018.3
20260902044729 65 296 0.0 0.0 0.00 0.00 0.00 91 1018.3
20260902044223 65 296 0.0 0.0 0.00 0.00 0.00 91 1018.3
20260902043748 65 296 0.0 0.0 0.00 0.00 0.00 90 1018.3
20260902043255 65 296 0.0 0.0 0.00 0.00 0.00 91 1018.3
20260902042723 65 296 0.0 0.0 0.00 0.00 0.00 91 1018.4
20260902042246 65 296 0.0 0.0 0.00 0.00 0.00 91 1018.4
20260902041740 65 320 0.0 0.0 0.00 0.00 0.00 91 1018.3
20260902041239 65 320 0.0 0.0 0.00 0.00 0.00 91 1018.2
20260902040724 65 320 0.0 0.0 0.00 0.00 0.00 90 1018.2
20260902040259 65 321 0.0 0.0 0.00 0.00 0.00 90 1018.2
20260902035749 65 320 0.0 0.0 0.00 0.00 0.00 90 1018.2
20260902035252 65 320 0.0 0.0 0.00 0.00 0.00 90 1018.2
20260902034723 65 320 0.0 0.0 0.00 0.00 0.00 90 1018.1
20260902034249 65 320 0.0 0.0 0.00 0.00 0.00 90 1018.2
20260902033746 65 320 0.0 0.0 0.00 0.00 0.00 90 1018.2
20260902033241 65 320 0.0 0.0 0.00 0.00 0.00 90 1018.3
20260902032732 65 320 0.0 0.0 0.00 0.00 0.00 90 1018.3
20260902032240 65 321 0.0 0.0 0.00 0.00 0.00 90 1018.3
20260902031728 65 320 0.0 0.0 0.00 0.00 0.00 90 1018.4
20260902031311 65 320 0.0 0.0 0.00 0.00 0.00 90 1018.4
20260902030756 65 320 0.0 0.0 0.00 0.00 0.00 90 1018.4
20260902030227 65 320 0.0 0.0 0.00 0.00 0.00 90 1018.3
20260902025726 65 320 0.0 0.0 0.00 0.00 0.00 89 1018.3
20260902025258 65 320 0.0 0.0 0.00 0.00 0.00 89 1018.2
20260902024749 65 320 0.0 2.0 0.00 0.00 0.00 89 1018.2
20260902024238 66 320 1.0 2.0 0.00 0.00 0.00 89 1018.2
20260902023745 66 321 0.0 1.0 0.00 0.00 0.00 89 1018.2
20260902023235 66 320 0.0 2.0 0.00 0.00 0.00 89 1018.2
20260902022745 66 320 1.0 2.0 0.00 0.00 0.00 89 1018.3
20260902022233 66 320 0.0 4.0 0.00 0.00 0.00 89 1018.3
20260902021723 66 320 2.0 4.0 0.00 0.00 0.00 89 1018.3
20260902021237 66 320 2.0 3.0 0.00 0.00 0.00 89 1018.2
20260902020737 66 320 0.0 0.0 0.00 0.00 0.00 89 1018.2
20260902020248 66 319 0.0 0.0 0.00 0.00 0.00 89 1018.2
20260902015724 66 320 0.0 0.0 0.00 0.00 0.00 89 1018.1
20260902015238 66 320 0.0 0.0 0.00 0.00 0.00 89 1018.1
20260902014751 67 320 0.0 0.0 0.00 0.00 0.00 89 1018.2
20260902014237 67 320 0.0 1.0 0.00 0.00 0.00 88 1018.0
20260902013731 67 320 0.0 3.0 0.00 0.00 0.00 89 1018.2
20260902013303 67 320 1.0 3.0 0.00 0.00 0.00 89 1018.1
20260902012744 67 318 2.0 3.0 0.00 0.00 0.00 89 1018.1
20260902012242 67 295 1.0 3.0 0.00 0.00 0.00 89 1018.0
20260902011725 67 295 0.0 1.0 0.00 0.00 0.00 88 1018.1
20260902011240 67 295 0.0 1.0 0.00 0.00 0.00 88 1018.1
20260902010747 67 295 1.0 1.0 0.00 0.00 0.00 88 1018.1
20260902010242 67 295 0.0 1.0 0.00 0.00 0.00 88 1018.2
20260902005758 67 295 0.0 1.0 0.00 0.00 0.00 88 1018.3
20260902005300 67 295 0.0 3.0 0.00 0.00 0.00 88 1018.2
20260902004737 68 295 2.0 3.0 0.00 0.00 0.00 88 1018.2
20260902004235 67 292 1.0 3.0 0.00 0.00 0.00 88 1018.2
20260902003730 68 292 0.0 0.0 0.00 0.00 0.00 88 1018.2
20260902003257 68 292 0.0 0.0 0.00 0.00 0.00 88 1018.2
20260902002728 68 292 0.0 0.0 0.00 0.00 0.00 88 1018.1
20260902002252 68 292 0.0 0.0 0.00 0.00 0.00 88 1018.2
20260902001758 68 292 0.0 2.0 0.00 0.00 0.00 88 1018.2
20260902001241 68 292 0.0 2.0 0.00 0.00 0.00 88 1018.2
20260902000722 68 292 0.0 2.0 0.00 0.00 0.00 87 1018.2
20260902000226 68 292 1.0 3.0 0.00 0.00 0.00 87 1018.2
20260901235738 68 292 1.0 3.0 0.00 0.00 0.00 87 1018.2
20260901235246 68 292 0.0 1.0 0.00 0.00 0.00 87 1018.3
20260901234737 68 292 0.0 3.0 0.00 0.00 0.00 87 1018.3
20260901234246 68 292 2.0 3.0 0.00 0.00 0.00 87 1018.2
20260901233734 68 292 1.0 3.0 0.00 0.00 0.00 87 1018.3
20260901233227 68 292 2.0 3.0 0.00 0.00 0.00 87 1018.2
20260901232811 68 292 1.0 2.0 0.00 0.00 0.00 87 1018.1
20260901232234 68 292 0.0 0.0 0.00 0.00 0.00 87 1018.1
20260901231735 68 292 0.0 2.0 0.00 0.00 0.00 87 1018.1
20260901231300 69 292 1.0 2.0 0.00 0.00 0.00 87 1018.2
20260901230743 69 292 1.0 3.0 0.00 0.00 0.00 87 1018.2
20260901230229 69 292 2.0 4.0 0.00 0.00 0.00 87 1018.1
20260901225738 69 292 1.0 4.0 0.00 0.00 0.00 87 1018.3
20260901225242 69 291 2.0 3.0 0.00 0.00 0.00 87 1018.3
20260901224724 69 355 1.0 3.0 0.00 0.00 0.00 87 1018.1
20260901224250 69 355 1.0 3.0 0.00 0.00 0.00 87 1018.1
20260901223742 69 355 0.0 2.0 0.00 0.00 0.00 87 1018.3
20260901223246 69 355 0.0 1.0 0.00 0.00 0.00 87 1018.2